Probability
13 3 3 13 10 6 0 0 0 0 3 0 0 3 3 6 0 3 0 23 45 65 74 90 97 97 97 97 97 97 97 97 97 97 97 94 94 94 94 94 94 97 94 94 87 81 81 84 77
0 3 10 13 6 0 0 0 0 0 0 0 6 6 16 23 19 19 16 35 52 65 65 90 97 97 97 97 97 97 97 97 97 97 94 90 94 94 97 94 90 90 94 87 84 84 77 74 84
0 3 10 10 3 0 0 0 0 0 0 3 13 16 23 29 45 26 26 45 52 55 71 90 97 94 94 97 97 97 97 97 97 97 94 90 94 94 90 94 90 94 90 84 81 81 71 71 87
0 3 3 0 0 0 0 0 0 6 10 13 23 32 19 39 45 26 32 42 58 68 81 90 97 94 94 90 97 97 97 97 97 97 94 94 97 97 94 94 94 90 90 84 81 77 71 81 81
0 0 0 0 0 0 0 0 3 16 19 23 26 35 32 42 39 32 42 52 65 71 90 90 94 94 90 90 90 97 97 97 97 97 94 94 94 97 97 97 90 87 84 84 81 77 74 77 84
0 0 0 0 0 0 0 0 6 19 29 26 26 32 32 42 32 35 45 55 71 90 90 90 94 90 90 94 94 94 97 97 97 97 97 94 94 97 97 97 90 84 84 87 81 71 61 65 71
0 0 0 0 0 0 0 0 13 26 35 23 23 26 23 39 42 48 45 52 71 90 90 90 94 90 94 97 97 97 97 100 100 97 97 94 94 94 94 94 90 87 87 87 84 71 61 61 77
0 0 0 0 0 0 0 0 10 26 32 26 16 32 26 29 48 52 52 48 68 90 90 90 90 90 94 94 100 100 100 100 100 97 94 94 94 94 94 94 90 87 90 90 71 68 61 61 77
0 0 0 0 0 0 0 6 6 23 35 42 48 29 35 45 58 52 58 58 55 77 84 84 87 87 84 87 94 94 97 100 97 94 94 90 81 81 90 87 90 81 77 74 68 65 65 61 61
0 0 0 0 0 0 0 6 13 26 29 39 32 42 45 55 68 68 58 58 55 65 74 77 77 81 81 90 94 94 94 90 90 87 84 52 48 45 65 87 90 74 74 68 61 65 61 35 10
0 0 0 0 0 0 0 3 10 26 39 32 48 45 52 55 68 68 65 58 48 58 71 74 68 65 65 74 77 71 71 74 74 65 52 35 42 42 39 52 65 55 45 35 42 35 19 6 6
0 0 0 0 0 0 0 3 16 29 45 39 45 45 52 61 55 68 65 58 68 71 74 68 68 61 55 65 74 58 65 61 65 61 52 35 35 29 23 23 26 26 23 23 23 19 13 10 13
0 0 0 0 0 0 0 3 23 32 48 45 45 52 48 55 58 65 61 61 65 71 74 77 65 65 68 58 55 65 55 65 61 61 55 45 32 32 26 26 26 23 13 13 16 13 13 6 13
0 0 0 0 0 0 3 3 10 32 55 45 55 52 48 55 52 58 71 65 58 58 71 71 68 68 58 58 55 58 65 61 68 58 55 52 29 29 26 19 23 16 13 6 6 13 10 6 6
0 0 0 0 0 0 3 6 19 39 52 42 52 52 55 48 52 68 71 71 65 61 71 58 71 68 68 61 68 68 65 61 65 65 52 55 39 29 29 19 19 13 10 6 3 3 3 0 3
0 0 0 0 0 0 3 6 23 42 45 45 55 61 61 52 55 65 74 74 71 68 68 74 87 74 68 65 61 61 61 52 61 55 55 58 42 32 32 16 16 19 16 10 3 0 0 0 0
0 0 0 0 0 0 0 6 16 39 48 42 55 58 68 58 65 65 71 74 74 74 77 81 87 84 74 61 61 68 65 48 52 55 55 58 45 42 32 26 13 13 19 10 6 0 0 0 0
0 0 0 0 0 0 0 6 23 45 42 58 68 68 68 71 77 74 81 81 77 77 77 81 81 77 77 58 61 65 52 58 58 55 52 52 55 39 26 26 16 19 16 3 0 0 0 0 0
0 0 0 0 0 0 3 6 19 23 42 65 61 71 74 74 77 77 84 87 81 77 81 84 77 77 77 71 65 65 55 55 52 52 52 42 52 42 26 29 19 19 13 3 3 0 0 0 0
0 0 0 0 0 0 3 6 23 26 32 48 58 65 68 77 77 74 84 87 84 84 77 81 84 74 74 71 65 52 48 52 52 48 52 48 52 42 35 16 16 13 6 3 3 0 0 0 0
0 0 0 0 0 0 0 0 6 16 23 39 52 61 65 71 81 81 77 84 87 90 81 77 77 71 65 58 55 55 55 52 39 45 55 48 48 42 35 19 16 6 6 3 3 0 0 0 0
0 0 0 0 0 0 0 0 0 0 13 26 42 58 61 65 77 77 77 87 84 81 77 77 74 71 61 58 61 52 48 45 45 32 45 52 55 48 29 19 23 3 0 0 0 0 0 0 0
0 0 0 0 0 0 0 0 0 3 10 23 35 52 68 71 77 81 81 84 81 74 74 71 74 71 68 71 61 55 45 39 29 32 39 45 39 45 39 16 19 13 0 0 0 0 0 0 0
0 0 0 0 0 0 0 0 0 3 6 16 29 52 58 71 71 77 84 77 74 77 74 74 74 74 68 71 71 68 48 42 35 39 45 35 35 35 35 32 16 13 13 6 0 0 0 0 0
0 0 0 0 0 0 0 0 0 0 3 16 19 42 55 68 71 71 71 74 71 71 71 68 74 71 68 71 71 68 58 45 42 39 35 39 39 32 32 26 16 16 6 10 3 0 0 0 0
0 0 0 0 0 0 0 0 0 3 10 19 29 35 48 65 68 71 71 68 71 71 65 68 74 71 71 68 71 65 58 55 48 35 26 35 35 35 26 23 13 16 13 6 3 3 0 0 0
0 0 0 0 0 0 0 0 6 10 10 26 26 29 42 58 74 74 71 65 68 65 61 61 68 65 65 65 61 61 58 58 45 39 29 26 19 16 23 13 6 10 6 6 6 3 3 0 0
0 0 0 0 0 0 0 0 3 10 16 23 29 29 39 55 65 61 61 68 71 71 61 61 65 65 61 58 58 55 52 45 35 35 35 29 29 23 16 10 3 0 0 0 3 3 0 0 0
0 0 0 0 0 0 0 0 3 3 13 19 32 32 48 58 61 52 58 55 58 68 68 61 61 58 58 55 48 48 42 39 29 29 29 26 23 16 16 10 10 6 6 3 3 3 3 6 6
0 0 0 0 0 0 0 0 3 3 10 19 26 32 52 39 48 55 52 52 52 55 65 61 55 65 58 52 48 45 39 35 35 35 26 19 16 13 13 16 10 10 13 6 6 3 6 10 10
Height
5903 5903 5902 5903 5903 5901 5899 5899 5899 5899 5899 5897 5896 5895 5895 5895 5895 5897 5895 5893 5893 5893 5893 5894 5894 5895 5895 5896 5896 5896 5897 5897 5898 5898 5898 5898 5898 5898 5898 5898 5898 5897 5897 5897 5897 5897 5897 5897 5897
5904 5904 5904 5904 5902 5901 5901 5900 5900 5900 5900 5899 5898 5897 5896 5895 5895 5895 5894 5894 5894 5894 5895 5895 5895 5896 5897 5897 5898 5898 5898 5899 5899 5899 5899 5899 5899 5899 5899 5899 5899 5899 5899 5899 5898 5898 5898 5898 5898
5905 5904 5905 5904 5902 5901 5901 5900 5900 5900 5900 5900 5900 5899 5898 5896 5896 5895 5895 5895 5895 5895 5896 5896 5897 5897 5898 5898 5899 5899 5900 5900 5900 5901 5901 5901 5900 5900 5900 5900 5900 5900 5900 5900 5900 5900 5899 5899 5899
5906 5906 5906 5905 5902 5902 5901 5900 5901 5902 5901 5901 5901 5900 5899 5898 5896 5896 5896 5895 5895 5896 5896 5897 5898 5898 5899 5899 5900 5900 5901 5901 5902 5902 5902 5902 5902 5902 5901 5901 5901 5901 5901 5901 5901 5901 5901 5900 5900
5906 5907 5906 5904 5903 5903 5903 5902 5902 5903 5902 5901 5901 5901 5900 5899 5897 5897 5897 5897 5897 5897 5897 5898 5899 5899 5900 5900 5901 5902 5902 5903 5903 5903 5903 5903 5903 5903 5903 5903 5903 5903 5903 5902 5902 5902 5902 5902 5902
5907 5907 5907 5905 5903 5903 5904 5903 5903 5904 5903 5903 5903 5902 5901 5900 5898 5898 5898 5898 5898 5898 5899 5899 5900 5900 5901 5901 5902 5903 5903 5903 5904 5904 5904 5904 5904 5904 5904 5904 5904 5904 5904 5903 5903 5903 5903 5903 5903
5907 5907 5906 5905 5904 5904 5904 5904 5905 5905 5905 5904 5904 5903 5902 5901 5900 5899 5899 5899 5899 5899 5900 5900 5900 5901 5901 5902 5903 5903 5904 5904 5904 5904 5905 5905 5905 5905 5905 5905 5905 5905 5905 5904 5904 5904 5904 5904 5904
5906 5906 5905 5904 5904 5904 5904 5904 5905 5905 5905 5905 5904 5903 5902 5902 5901 5900 5900 5900 5900 5900 5900 5901 5901 5901 5902 5902 5903 5904 5904 5904 5904 5905 5905 5905 5906 5906 5905 5905 5905 5905 5905 5905 5905 5905 5905 5905 5905
5906 5906 5904 5904 5904 5904 5904 5905 5905 5905 5905 5905 5904 5903 5903 5902 5901 5900 5900 5900 5900 5901 5901 5901 5901 5901 5902 5902 5903 5904 5904 5904 5905 5905 5905 5906 5906 5906 5906 5906 5906 5906 5906 5906 5906 5906 5906 5906 5906
5904 5904 5903 5903 5903 5904 5904 5904 5905 5905 5905 5905 5904 5904 5903 5902 5902 5901 5901 5901 5901 5901 5901 5901 5901 5902 5902 5903 5903 5904 5904 5904 5904 5905 5905 5905 5906 5906 5906 5906 5906 5906 5906 5906 5906 5907 5907 5907 5907
5903 5903 5902 5902 5903 5903 5903 5904 5904 5904 5905 5905 5905 5904 5903 5903 5902 5901 5901 5900 5900 5900 5901 5901 5901 5901 5902 5902 5903 5904 5904 5904 5904 5905 5905 5905 5906 5906 5906 5906 5906 5906 5906 5906 5907 5907 5907 5907 5907
5902 5902 5901 5901 5902 5903 5903 5903 5903 5903 5905 5905 5904 5904 5903 5903 5902 5902 5901 5900 5900 5900 5901 5901 5901 5901 5901 5902 5902 5903 5903 5904 5904 5904 5905 5905 5906 5906 5906 5906 5906 5906 5906 5906 5907 5907 5907 5908 5908
5900 5901 5900 5900 5901 5902 5902 5902 5902 5902 5904 5904 5904 5903 5903 5903 5902 5902 5901 5901 5900 5900 5900 5900 5900 5900 5901 5901 5901 5902 5903 5903 5904 5904 5904 5905 5905 5906 5906 5906 5906 5906 5906 5906 5907 5907 5907 5907 5908
5897 5898 5899 5899 5900 5900 5901 5901 5901 5902 5903 5903 5903 5903 5903 5902 5902 5902 5901 5901 5900 5900 5900 5900 5900 5900 5900 5900 5901 5901 5902 5903 5903 5903 5904 5904 5905 5905 5905 5905 5905 5906 5906 5906 5906 5906 5907 5907 5907
5893 5896 5897 5898 5899 5899 5900 5900 5900 5901 5902 5902 5903 5903 5902 5902 5902 5901 5901 5900 5900 5899 5899 5899 5899 5899 5900 5900 5900 5901 5901 5902 5902 5903 5903 5903 5904 5904 5904 5904 5905 5905 5905 5905 5906 5906 5906 5907 5907
5890 5893 5895 5897 5897 5898 5900 5899 5899 5899 5900 5901 5901 5902 5901 5901 5901 5900 5899 5899 5898 5898 5898 5898 5898 5898 5899 5899 5899 5900 5900 5901 5901 5902 5902 5902 5903 5903 5903 5903 5904 5904 5904 5905 5905 5905 5905 5906 5906
5887 5890 5892 5894 5895 5896 5896 5897 5897 5897 5898 5899 5900 5900 5901 5900 5900 5899 5898 5898 5897 5897 5897 5897 5897 5897 5897 5897 5898 5898 5899 5899 5900 5900 5901 5901 5902 5902 5902 5902 5903 5903 5903 5904 5904 5904 5904 5905 5905
5884 5886 5888 5890 5892 5892 5893 5894 5894 5894 5895 5897 5898 5898 5899 5899 5899 5898 5897 5896 5896 5895 5895 5895 5895 5895 5895 5895 5896 5896 5897 5897 5898 5898 5899 5900 5900 5900 5900 5901 5901 5901 5902 5902 5902 5903 5903 5904 5904
5879 5881 5884 5886 5887 5888 5889 5890 5891 5892 5893 5895 5896 5897 5897 5896 5896 5896 5895 5895 5894 5893 5892 5893 5893 5893 5893 5893 5893 5894 5895 5895 5896 5896 5897 5898 5898 5898 5898 5899 5899 5899 5900 5900 5901 5901 5902 5902 5903
5874 5877 5880 5883 5884 5884 5885 5887 5888 5889 5890 5892 5893 5894 5894 5894 5895 5894 5894 5893 5893 5891 5891 5891 5890 5891 5891 5891 5891 5891 5892 5893 5894 5894 5895 5895 5895 5896 5896 5896 5897 5897 5898 5898 5899 5899 5900 5901 5901
5869 5873 5877 5879 5880 5881 5882 5883 5885 5887 5888 5889 5890 5891 5891 5892 5892 5892 5892 5891 5891 5890 5890 5889 5889 5888 5889 5889 5889 5889 5890 5891 5891 5892 5892 5893 5893 5893 5893 5893 5894 5895 5895 5896 5896 5897 5897 5898 5899
5864 5869 5872 5874 5875 5877 5879 5880 5882 5883 5884 5885 5886 5888 5889 5889 5890 5890 5890 5889 5888 5887 5887 5886 5886 5886 5887 5887 5887 5887 5888 5889 5889 5889 5890 5890 5890 5890 5890 5891 5891 5892 5892 5893 5894 5895 5895 5896 5897
5860 5864 5866 5869 5870 5873 5874 5876 5879 5880 5880 5881 5883 5884 5886 5886 5887 5887 5887 5887 5886 5885 5885 5883 5884 5884 5884 5885 5885 5885 5885 5886 5887 5887 5887 5887 5887 5887 5887 5887 5888 5889 5889 5890 5891 5892 5892 5893 5894
5855 5858 5861 5863 5865 5867 5870 5872 5874 5875 5877 5878 5879 5880 5881 5882 5883 5883 5884 5884 5883 5883 5882 5882 5881 5882 5882 5882 5883 5883 5883 5884 5884 5884 5884 5884 5884 5884 5884 5884 5885 5885 5886 5887 5887 5888 5889 5890 5891
5848 5852 5855 5858 5860 5863 5867 5867 5870 5872 5873 5874 5876 5876 5877 5878 5879 5879 5880 5880 5880 5879 5878 5878 5879 5879 5879 5879 5880 5880 5881 5881 5881 5881 5881 5881 5881 5880 5880 5881 5881 5882 5882 5883 5884 5885 5886 5886 5887
5843 5847 5850 5853 5856 5860 5862 5862 5866 5868 5870 5871 5872 5872 5873 5875 5876 5876 5876 5876 5876 5876 5875 5876 5876 5876 5876 5876 5877 5877 5878 5878 5878 5878 5878 5878 5877 5877 5877 5877 5877 5878 5879 5879 5880 5881 5882 5883 5883
5837 5841 5846 5849 5852 5855 5857 5858 5861 5863 5866 5867 5868 5869 5870 5871 5872 5873 5873 5874 5873 5873 5873 5873 5873 5873 5874 5874 5874 5874 5874 5874 5875 5875 5875 5874 5874 5874 5874 5874 5874 5875 5875 5876 5876 5877 5878 5878 5879
5833 5837 5840 5843 5846 5848 5852 5854 5857 5859 5861 5863 5865 5866 5867 5867 5868 5870 5870 5871 5871 5870 5870 5870 5870 5870 5871 5871 5871 5871 5871 5871 5871 5871 5871 5871 5871 5871 5870 5870 5870 5871 5871 5871 5872 5873 5873 5874 5875
5827 5831 5834 5838 5841 5844 5847 5852 5853 5855 5857 5859 5861 5862 5862 5863 5864 5865 5866 5867 5867 5867 5867 5867 5867 5867 5867 5867 5867 5867 5867 5867 5868 5868 5868 5868 5867 5867 5867 5866 5867 5867 5867 5867 5868 5868 5869 5869 5869
5821 5825 5829 5833 5836 5839 5842 5849 5849 5851 5853 5854 5856 5857 5858 5859 5860 5861 5862 5861 5863 5864 5864 5864 5864 5864 5864 5864 5864 5864 5864 5864 5864 5865 5864 5864 5864 5863 5863 5862 5863 5863 5863 5863 5863 5864 5864 5864 5864
Wind_Speed
10 10 9 9 10 12 15 16 15 15 15 14 14 13 12 10 7 7 7 6 7 8 8 7 7 7 7 6 6 5 5 5 4 5 5 5 5 6 6 7 6 6 7 7 7 7 7 7 8
8 9 8 7 8 12 14 16 15 14 14 13 12 12 10 9 7 6 6 5 6 7 7 6 6 6 6 5 5 5 5 4 4 4 4 4 4 5 6 6 6 6 7 7 7 7 7 7 8
6 6 6 5 7 11 13 14 16 15 14 13 12 11 10 9 8 7 5 5 5 6 6 6 5 5 5 5 4 4 3 3 3 3 3 3 3 4 5 5 6 6 6 6 6 6 6 7 7
5 5 4 4 7 9 12 13 15 16 14 13 12 11 10 9 9 8 6 5 5 5 5 5 5 5 5 5 4 3 3 2 2 2 2 2 2 3 4 4 5 5 5 5 5 6 6 7 7
4 4 3 3 6 8 10 12 15 16 14 13 12 11 11 11 10 9 7 6 5 4 3 3 4 4 4 4 3 3 2 2 2 2 2 2 2 3 3 4 4 4 4 5 5 5 5 6 7
4 4 2 2 4 7 8 10 13 14 14 13 11 11 11 11 10 9 8 6 5 4 3 3 3 3 3 3 3 2 2 2 2 1 1 1 2 2 3 3 3 3 4 4 5 5 5 6 6
4 4 4 3 3 5 6 10 12 13 14 13 11 11 10 11 9 8 7 6 5 4 2 2 2 2 2 2 2 2 1 1 1 1 1 1 1 2 2 2 2 2 3 3 4 4 5 5 6
6 5 5 3 3 3 6 9 12 12 13 12 12 10 9 10 9 8 7 6 4 3 2 2 2 2 2 2 1 1 1 1 1 1 1 1 1 1 2 2 2 2 2 3 3 4 5 5 5
8 8 6 3 1 3 6 8 11 12 12 11 10 9 8 8 9 8 7 6 4 3 2 1 1 1 2 1 1 1 1 1 1 1 1 1 1 1 1 1 1 1 2 2 3 3 4 4 4
10 10 8 5 3 3 6 9 11 12 11 10 10 8 8 8 8 8 7 6 5 4 2 2 0 0 1 1 1 1 1 1 0 1 1 1 1 0 0 1 1 1 1 2 2 2 3 3 3
12 12 9 7 5 4 7 10 11 11 10 10 8 8 8 7 7 7 6 6 5 4 3 2 1 0 1 1 1 0 1 1 1 1 1 1 1 0 0 0 0 0 0 1 1 1 2 2 2
14 13 12 9 7 6 9 11 11 11 10 8 7 8 7 6 6 6 6 5 5 3 2 2 1 0 1 2 2 2 1 1 1 1 1 1 1 1 1 1 1 1 1 0 0 1 1 1 1
15 15 14 12 10 9 10 12 12 12 10 8 8 8 8 6 5 5 5 5 4 3 2 2 2 1 1 2 3 2 2 2 2 2 2 2 2 2 2 2 2 2 1 1 1 1 1 0 0
18 17 16 15 13 11 12 13 13 11 9 8 8 8 8 6 5 5 4 4 4 3 2 2 1 1 2 2 3 2 3 2 2 2 2 2 3 2 2 3 3 3 3 2 2 2 2 1 1
20 19 17 16 15 14 14 14 14 12 9 9 9 8 8 7 6 5 4 4 3 2 2 1 1 1 1 2 3 3 4 4 3 3 3 3 3 3 3 3 3 4 4 3 3 3 3 2 2
21 20 18 17 17 16 16 14 13 13 11 9 9 8 8 7 6 7 6 4 3 3 2 1 1 2 2 3 4 4 4 5 4 4 3 3 3 3 4 4 4 4 4 4 4 4 3 3 3
22 20 19 18 17 16 15 14 14 14 12 10 9 8 7 7 6 7 7 7 4 4 3 3 2 2 3 4 4 4 4 5 5 5 4 4 4 4 4 5 5 5 5 6 6 5 5 4 4
21 21 20 18 16 16 16 15 14 14 14 13 10 9 9 7 7 7 8 8 6 6 5 3 3 4 4 4 5 5 5 5 5 6 5 5 6 5 5 6 6 6 6 6 7 6 6 5 4
23 23 21 18 16 16 15 15 15 15 16 14 12 12 11 8 8 8 8 8 8 8 5 4 4 4 5 5 5 6 7 6 6 7 7 7 7 7 6 6 7 7 7 7 7 7 6 6 6
25 24 22 19 18 17 16 16 16 17 17 16 15 14 12 10 9 9 9 9 9 7 6 5 5 5 6 6 6 7 8 8 7 7 7 8 8 8 8 8 8 8 8 8 8 7 8 8 7
27 25 22 20 20 19 19 19 19 19 19 18 16 14 12 12 10 10 11 10 10 9 8 7 6 5 6 7 7 7 7 8 8 8 8 9 9 9 9 9 9 10 9 8 8 9 9 9 9
26 25 23 23 22 21 21 22 21 20 21 19 17 14 13 13 12 10 11 11 11 11 9 8 7 7 7 7 6 6 6 7 8 8 9 9 9 10 10 10 10 10 11 11 10 10 11 11 10
26 25 25 25 25 25 24 24 22 22 22 19 18 17 15 14 13 12 12 11 11 11 9 8 8 7 8 8 7 7 7 8 8 9 9 10 10 11 12 12 11 11 12 12 12 12 12 12 11
27 28 28 28 28 29 26 26 25 23 21 19 18 19 18 16 15 14 13 12 11 11 10 9 8 9 9 8 8 8 8 8 8 9 10 11 11 12 12 12 12 12 13 13 13 13 13 13 13
30 31 31 31 31 29 27 28 25 22 21 20 19 19 18 16 16 15 13 12 11 10 10 10 10 10 10 10 9 9 8 8 9 9 10 10 11 12 13 13 14 13 13 14 14 15 15 14 14
30 32 33 32 32 29 27 28 25 22 21 21 19 16 16 15 14 13 13 13 12 11 11 10 10 11 11 11 11 11 10 10 10 10 10 11 12 12 12 13 13 13 13 14 15 16 16 16 16
30 32 32 32 31 30 28 27 25 23 21 20 18 16 15 14 12 13 12 12 11 11 10 11 11 11 11 12 11 11 11 10 11 11 11 11 11 11 11 12 12 13 14 15 15 16 17 18 18
30 30 32 33 32 30 29 27 24 22 21 20 18 16 15 14 12 12 12 12 12 11 11 11 12 12 12 13 12 11 11 11 12 12 12 12 12 12 12 12 13 14 14 15 15 16 17 18 19
30 32 32 33 32 31 29 26 23 22 20 19 18 17 16 15 13 12 12 13 12 12 11 11 12 13 13 13 13 12 12 12 12 12 13 13 13 13 13 13 14 14 14 14 15 17 17 18 20
29 31 32 33 32 31 30 26 23 21 20 20 19 16 13 13 13 13 14 14 13 12 11 12 13 14 14 14 13 13 12 13 13 13 13 13 14 14 14 13 14 14 15 15 15 16 17 18 19
Wind_Direction
96 93 85 72 64 52 48 45 41 34 35 36 37 36 42 49 62 72 80 103 108 109 109 105 104 102 102 99 100 105 110 109 107 106 103 106 107 109 108 107 106 107 113 118 117 114 105 96 94
102 96 88 78 61 49 42 37 34 30 36 39 39 39 43 46 56 70 85 99 108 110 112 110 107 105 101 98 100 106 109 109 108 103 99 106 112 112 113 112 107 103 104 110 108 102 99 95 95
110 103 99 75 59 49 43 34 23 20 28 35 40 43 44 49 55 65 79 90 105 108 112 115 111 106 101 96 93 95 106 112 108 109 102 103 114 118 119 115 107 104 100 101 100 94 93 95 94
122 111 103 69 58 55 42 30 18 13 22 26 35 44 46 51 58 63 64 71 89 105 108 112 113 110 105 99 93 84 87 94 102 106 108 98 110 120 126 117 108 103 99 95 90 89 89 88 89
142 128 104 71 50 47 34 21 14 8 15 21 29 40 44 49 54 56 57 60 71 86 100 110 111 113 109 103 97 86 73 61 72 96 97 95 112 122 126 117 113 104 94 87 81 80 86 88 88
163 171 178 70 46 39 22 17 12 10 12 15 24 38 43 46 49 48 52 57 63 81 107 119 115 115 115 108 97 88 76 65 63 75 84 104 121 125 116 114 111 102 92 85 83 81 84 87 86
193 203 194 114 59 31 11 3 360 2 4 10 15 29 38 43 43 43 47 51 54 70 104 116 115 115 110 101 97 86 67 66 67 69 82 110 116 128 127 127 126 110 96 91 87 87 85 85 87
192 202 180 135 66 6 1 352 344 353 358 0 5 16 32 44 41 39 41 43 46 54 79 107 108 101 104 104 88 78 63 55 73 95 111 122 114 124 132 131 131 115 100 91 88 86 84 88 91
185 188 188 179 106 354 343 333 336 342 348 354 360 14 25 40 41 37 37 40 42 44 55 77 98 99 95 98 93 67 51 47 79 146 143 132 121 130 147 136 125 102 98 88 90 89 89 93 95
190 194 205 219 247 310 319 310 324 329 339 349 358 7 12 31 40 37 36 36 36 37 41 44 49 116 106 108 97 52 40 27 256 193 206 192 171 285 86 147 123 111 92 81 89 100 94 97 95
197 200 210 226 245 263 279 294 309 314 331 337 347 356 4 22 33 33 27 24 27 32 37 39 37 228 196 182 192 291 358 327 266 226 230 235 263 273 352 279 302 164 112 89 94 102 94 93 90
203 206 212 226 241 251 262 279 291 302 319 330 339 351 354 12 24 22 14 16 19 24 28 24 28 322 224 232 246 246 254 278 269 245 247 253 266 266 277 302 316 310 299 23 114 145 105 90 91
209 211 215 222 233 242 255 269 280 288 305 314 330 348 355 355 9 7 18 25 19 16 18 3 348 340 295 257 246 242 253 265 263 270 263 257 256 272 273 297 299 299 294 274 258 236 239 159 73
214 216 219 222 226 236 251 264 273 287 296 308 320 332 346 347 353 3 16 26 29 16 7 349 322 312 293 265 250 253 255 259 259 271 275 263 256 262 288 283 285 285 277 273 269 257 253 256 242
218 218 220 225 228 232 243 254 266 280 287 301 312 318 329 337 338 345 356 15 22 7 348 302 250 253 256 253 250 250 246 247 255 264 272 265 256 259 266 270 274 271 265 261 258 257 246 240 240
224 222 220 224 229 232 239 248 258 269 278 294 304 306 315 321 325 328 332 349 356 348 325 296 276 256 246 247 241 241 240 244 249 255 266 267 263 260 259 263 274 271 255 251 251 254 256 253 250
225 224 223 226 228 232 238 246 256 267 274 285 294 298 305 308 315 322 327 329 333 326 315 303 303 275 255 251 242 241 239 241 245 245 255 263 264 264 262 264 266 271 260 253 250 248 253 258 254
225 224 223 224 225 230 237 245 256 268 274 280 283 290 294 292 301 310 317 317 318 316 312 308 301 281 260 258 255 243 232 232 242 244 249 263 266 265 267 265 261 264 256 248 246 246 250 253 250
224 224 221 219 216 222 233 242 253 268 273 276 282 292 290 281 286 290 301 300 305 308 297 296 297 289 271 265 260 241 234 235 239 246 252 261 268 267 267 266 266 261 256 247 246 246 248 252 247
223 224 223 219 216 222 232 244 257 262 269 273 276 283 283 281 283 281 283 289 297 300 291 284 286 289 283 276 266 243 238 239 243 250 257 261 267 267 264 266 264 258 254 248 247 247 245 243 241
223 224 221 216 215 223 232 240 247 255 264 267 270 276 280 276 281 282 283 287 290 294 296 278 280 285 286 279 268 248 240 239 245 254 263 261 262 263 264 264 259 256 252 251 252 253 244 240 238
223 221 219 214 216 221 231 241 247 254 261 264 266 269 273 277 283 284 282 283 288 288 291 280 269 276 281 280 275 257 247 244 250 258 264 266 264 264 261 260 260 257 255 254 254 253 245 241 241
220 217 216 216 218 223 228 239 247 251 255 258 265 270 272 277 283 283 280 276 279 285 289 280 272 277 279 274 274 262 256 254 256 262 268 272 270 266 265 260 259 258 255 254 249 248 245 243 243
216 214 215 217 220 223 227 238 245 250 253 257 266 274 276 277 282 285 277 270 269 274 278 274 273 273 274 269 267 265 255 256 262 266 272 272 269 265 264 262 262 258 255 254 250 248 246 245 245
214 213 214 217 222 225 228 238 245 249 252 257 264 272 271 274 280 278 273 270 268 270 275 272 266 265 267 265 264 263 261 262 266 270 273 273 271 267 263 263 261 259 258 256 255 250 248 248 246
216 215 217 221 225 228 229 237 243 245 247 251 256 261 265 270 274 269 270 270 267 269 274 268 265 263 261 261 264 263 261 263 267 272 274 275 270 266 265 265 259 260 259 257 254 252 251 249 249
217 217 220 223 227 228 228 235 240 242 244 249 256 261 262 264 263 262 263 267 266 265 273 273 271 265 260 260 264 263 261 264 266 270 274 276 271 268 264 264 260 260 261 258 255 254 252 251 250
216 217 220 222 224 226 228 233 240 243 247 251 253 257 258 264 259 256 256 257 261 265 271 274 270 267 264 262 266 268 268 268 267 270 273 274 273 273 270 263 260 261 263 260 256 256 254 254 254
215 216 220 222 224 228 232 234 238 246 249 247 248 252 258 257 257 257 254 253 257 260 266 268 269 266 268 267 268 272 272 268 268 272 275 275 274 273 272 267 261 262 264 262 260 258 255 256 256
217 217 220 222 225 228 233 236 238 246 249 247 244 248 253 260 266 261 256 252 253 258 264 266 268 268 267 266 268 273 273 270 268 271 274 275 275 273 271 266 263 263 263 264 264 262 258 260 259